APJ590 RJCC-RJAA

Flight info

Callsign APJ590
Flight time 1h 24m
Altitude 38000
Route TOBBY Y10 LARCH Y302 JUGEM Y30 SWAMP
Aircraft A20N/M-SDE2E3FGHIRWXY/LB1

Departure

Time 2026-05-06 19:41
Airport New Chitose Airport (RJCC)

Arrival

Time 2026-05-06 21:05
Airport Narita International Airport (RJAA)
Time Latitude Longitude Altitude Speed Heading
2026-05-06 19:17 42.79037 141.67908 80 ft 0 kts 184°
2026-05-06 19:33 42.79041 141.67908 80 ft 2 kts 185°
2026-05-06 19:33 42.79056 141.67909 79 ft 2 kts 184°
2026-05-06 19:33 42.79071 141.67911 79 ft 2 kts 184°
2026-05-06 19:34 42.79086 141.67912 79 ft 2 kts 184°
2026-05-06 19:34 42.79100 141.67914 79 ft 1 kts 184°
2026-05-06 19:34 42.79110 141.67915 78 ft 2 kts 171°
2026-05-06 19:34 42.79124 141.67906 78 ft 2 kts 137°
2026-05-06 19:35 42.79133 141.67889 77 ft 2 kts 107°
2026-05-06 19:35 42.79134 141.67879 77 ft 1 kts 90°
2026-05-06 19:35 42.79134 141.67873 77 ft 0 kts 92°
2026-05-06 19:37 42.79134 141.67876 77 ft 2 kts 92°
2026-05-06 19:37 42.79133 141.67906 78 ft 7 kts 94°
2026-05-06 19:38 42.79113 141.68039 80 ft 14 kts 109°
2026-05-06 19:38 42.79066 141.68170 81 ft 15 kts 122°
2026-05-06 19:38 42.78999 141.68282 82 ft 14 kts 140°
2026-05-06 19:38 42.78916 141.68355 84 ft 13 kts 148°
2026-05-06 19:39 42.78895 141.68465 84 ft 13 kts 69°
2026-05-06 19:39 42.78932 141.68605 80 ft 18 kts 71°
2026-05-06 19:39 42.78916 141.68724 79 ft 13 kts 138°
2026-05-06 19:39 42.78838 141.68803 76 ft 15 kts 155°
2026-05-06 19:40 42.78734 141.68829 76 ft 15 kts 173°
2026-05-06 19:40 42.78585 141.68855 75 ft 39 kts 172°
2026-05-06 19:40 42.78078 141.68945 74 ft 107 kts 172°
2026-05-06 19:40 42.77148 141.69116 133 ft 154 kts 171°
2026-05-06 19:41 42.76089 141.69307 695 ft 157 kts 172°
2026-05-06 19:41 42.74952 141.69518 1215 ft 173 kts 173°
2026-05-06 19:41 42.73696 141.69746 1659 ft 195 kts 173°
2026-05-06 19:41 42.72287 141.69945 2225 ft 213 kts 177°
2026-05-06 19:42 42.70761 141.70106 2772 ft 230 kts 179°
2026-05-06 19:42 42.69125 141.70265 3360 ft 243 kts 180°
2026-05-06 19:42 42.67433 141.70412 4186 ft 246 kts 181°
2026-05-06 19:42 42.65714 141.70552 4979 ft 251 kts 182°
2026-05-06 19:43 42.63969 141.70685 5730 ft 258 kts 183°
2026-05-06 19:43 42.62180 141.70822 6520 ft 263 kts 184°
2026-05-06 19:43 42.60327 141.70956 7318 ft 268 kts 184°
2026-05-06 19:43 42.58466 141.71092 8135 ft 271 kts 184°
2026-05-06 19:44 42.56588 141.71228 8943 ft 274 kts 184°
2026-05-06 19:44 42.54689 141.71367 9727 ft 278 kts 183°
2026-05-06 19:44 42.52773 141.71509 10471 ft 283 kts 183°
2026-05-06 19:44 42.50731 141.71652 10919 ft 300 kts 183°
2026-05-06 19:45 42.48592 141.71800 11310 ft 317 kts 182°
2026-05-06 19:45 42.46362 141.71964 11933 ft 325 kts 182°
2026-05-06 19:45 42.44114 141.72134 12709 ft 328 kts 182°
2026-05-06 19:45 42.41825 141.72308 13475 ft 330 kts 182°
2026-05-06 19:46 42.39542 141.72478 14187 ft 334 kts 182°
2026-05-06 19:46 42.37205 141.72653 14869 ft 338 kts 183°
2026-05-06 19:46 42.34857 141.72830 15512 ft 342 kts 183°
2026-05-06 19:46 42.32473 141.73006 16184 ft 346 kts 183°
2026-05-06 19:47 42.30072 141.73180 16813 ft 350 kts 183°
2026-05-06 19:47 42.27626 141.73358 17449 ft 354 kts 183°
2026-05-06 19:47 42.25150 141.73540 18067 ft 357 kts 183°
2026-05-06 19:47 42.22677 141.73721 18644 ft 361 kts 183°
2026-05-06 19:48 42.20164 141.73906 19201 ft 365 kts 184°
2026-05-06 19:48 42.17598 141.74095 19758 ft 369 kts 184°
2026-05-06 19:48 42.15029 141.74281 20297 ft 373 kts 184°
2026-05-06 19:48 42.12421 141.74472 20823 ft 377 kts 184°
2026-05-06 19:49 42.09811 141.74663 21311 ft 382 kts 184°
2026-05-06 19:49 42.07125 141.74860 21842 ft 385 kts 184°
2026-05-06 19:49 42.04460 141.75056 22321 ft 389 kts 184°
2026-05-06 19:49 42.01769 141.75252 22828 ft 391 kts 184°
2026-05-06 19:50 41.99039 141.75449 23317 ft 394 kts 184°
2026-05-06 19:50 41.96292 141.75648 23777 ft 398 kts 184°
2026-05-06 19:50 41.93509 141.75853 24226 ft 401 kts 184°
2026-05-06 19:50 41.90702 141.76065 24680 ft 405 kts 184°
2026-05-06 19:51 41.87884 141.76321 25161 ft 408 kts 183°
2026-05-06 19:51 41.85067 141.76590 25641 ft 410 kts 183°
2026-05-06 19:51 41.82205 141.76863 26069 ft 413 kts 183°
2026-05-06 19:51 41.79322 141.77135 26461 ft 416 kts 183°
2026-05-06 19:52 41.76431 141.77405 26834 ft 420 kts 183°
2026-05-06 19:52 41.73518 141.77675 27248 ft 422 kts 183°
2026-05-06 19:52 41.70590 141.77949 27652 ft 424 kts 184°
2026-05-06 19:52 41.67632 141.78224 27994 ft 428 kts 184°
2026-05-06 19:53 41.64648 141.78500 28362 ft 430 kts 184°
2026-05-06 19:53 41.61675 141.78778 28755 ft 432 kts 184°
2026-05-06 19:53 41.58675 141.79056 29067 ft 435 kts 184°
2026-05-06 19:53 41.55667 141.79330 29383 ft 437 kts 184°
2026-05-06 19:54 41.52605 141.79478 29717 ft 437 kts 187°
2026-05-06 19:54 41.49595 141.79401 30080 ft 434 kts 191°
2026-05-06 19:54 41.46610 141.79099 30512 ft 430 kts 194°
2026-05-06 19:54 41.43633 141.78587 30962 ft 427 kts 196°
2026-05-06 19:55 41.40722 141.78040 31387 ft 426 kts 196°
2026-05-06 19:55 41.37775 141.77487 31749 ft 426 kts 196°
2026-05-06 19:55 41.34843 141.76936 32130 ft 426 kts 196°
2026-05-06 19:55 41.31926 141.76390 32512 ft 425 kts 197°
2026-05-06 19:56 41.28996 141.75844 32860 ft 425 kts 197°
2026-05-06 19:56 41.26084 141.75299 33188 ft 425 kts 197°
2026-05-06 19:56 41.23164 141.74754 33482 ft 425 kts 197°
2026-05-06 19:56 41.20233 141.74208 33822 ft 425 kts 197°
2026-05-06 19:57 41.17317 141.73665 34140 ft 425 kts 197°
2026-05-06 19:57 41.14410 141.73126 34514 ft 423 kts 197°
2026-05-06 19:57 41.11508 141.72588 34847 ft 422 kts 197°
2026-05-06 19:57 41.08602 141.72047 35128 ft 422 kts 197°
2026-05-06 19:58 41.05680 141.71506 35407 ft 422 kts 197°
2026-05-06 19:58 41.02765 141.70964 35651 ft 423 kts 197°
2026-05-06 19:58 40.99861 141.70427 35903 ft 423 kts 197°
2026-05-06 19:58 40.96968 141.69891 36170 ft 422 kts 197°
2026-05-06 19:59 40.94050 141.69354 36431 ft 422 kts 198°
2026-05-06 19:59 40.91148 141.68817 36636 ft 423 kts 197°
2026-05-06 19:59 40.88221 141.68275 36857 ft 423 kts 197°
2026-05-06 19:59 40.85319 141.67740 36994 ft 425 kts 198°
2026-05-06 20:00 40.82407 141.67203 37144 ft 426 kts 198°
2026-05-06 20:00 40.79453 141.66660 37284 ft 427 kts 198°
2026-05-06 20:00 40.76536 141.66122 37461 ft 427 kts 198°
2026-05-06 20:00 40.73578 141.65578 37563 ft 429 kts 198°
2026-05-06 20:01 40.70612 141.65034 37701 ft 430 kts 198°
2026-05-06 20:01 40.67661 141.64494 37839 ft 431 kts 198°
2026-05-06 20:01 40.61692 141.63399 37973 ft 434 kts 198°
2026-05-06 20:02 40.55730 141.62312 37982 ft 434 kts 197°
2026-05-06 20:02 40.49773 141.61227 37972 ft 433 kts 197°
2026-05-06 20:03 40.43816 141.60141 37975 ft 433 kts 197°
2026-05-06 20:03 40.37846 141.59058 37979 ft 434 kts 197°
2026-05-06 20:04 40.31856 141.57973 37981 ft 434 kts 197°
2026-05-06 20:04 40.25894 141.56891 37985 ft 434 kts 197°
2026-05-06 20:05 40.19896 141.55808 37987 ft 434 kts 197°
2026-05-06 20:05 40.13911 141.54729 37994 ft 435 kts 197°
2026-05-06 20:06 40.07935 141.53651 38004 ft 435 kts 197°
2026-05-06 20:06 40.01949 141.52579 38007 ft 434 kts 197°
2026-05-06 20:07 39.95974 141.51506 38013 ft 435 kts 197°
2026-05-06 20:07 39.90035 141.50439 38013 ft 435 kts 197°
2026-05-06 20:08 39.84020 141.49364 38018 ft 434 kts 197°
2026-05-06 20:08 39.78045 141.48297 38018 ft 434 kts 197°
2026-05-06 20:09 39.72079 141.47234 38022 ft 434 kts 197°
2026-05-06 20:09 39.66092 141.46168 38020 ft 435 kts 197°
2026-05-06 20:10 39.60078 141.45100 38024 ft 436 kts 197°
2026-05-06 20:10 39.54100 141.44041 38021 ft 434 kts 196°
2026-05-06 20:11 39.48126 141.42986 38019 ft 435 kts 197°
2026-05-06 20:11 39.42149 141.41930 38022 ft 435 kts 197°
2026-05-06 20:12 39.36158 141.40874 38024 ft 434 kts 196°
2026-05-06 20:12 39.30181 141.39825 38020 ft 434 kts 196°
2026-05-06 20:13 39.24186 141.38770 38020 ft 435 kts 196°
2026-05-06 20:13 39.18191 141.37720 38019 ft 435 kts 196°
2026-05-06 20:14 39.12194 141.36670 38016 ft 436 kts 196°
2026-05-06 20:14 39.06199 141.35625 38015 ft 437 kts 196°
2026-05-06 20:15 39.00191 141.34578 38013 ft 436 kts 195°
2026-05-06 20:15 38.94181 141.33531 38005 ft 437 kts 195°
2026-05-06 20:16 38.88144 141.32484 38005 ft 437 kts 195°
2026-05-06 20:16 38.82143 141.31444 38006 ft 437 kts 195°
2026-05-06 20:17 38.76120 141.30400 38007 ft 436 kts 195°
2026-05-06 20:17 38.70113 141.29364 38009 ft 436 kts 195°
2026-05-06 20:18 38.64123 141.28332 38007 ft 435 kts 195°
2026-05-06 20:18 38.58131 141.27298 38011 ft 434 kts 194°
2026-05-06 20:19 38.52156 141.26270 38014 ft 436 kts 194°
2026-05-06 20:19 38.46143 141.25240 38018 ft 434 kts 194°
2026-05-06 20:20 38.40169 141.24214 38017 ft 435 kts 194°
2026-05-06 20:20 38.34184 141.23189 38015 ft 436 kts 194°
2026-05-06 20:21 38.28145 141.22159 38015 ft 436 kts 194°
2026-05-06 20:21 38.22143 141.21137 38011 ft 435 kts 194°
2026-05-06 20:22 38.16175 141.20122 38011 ft 435 kts 194°
2026-05-06 20:22 38.10174 141.19101 38010 ft 435 kts 194°
2026-05-06 20:23 38.04188 141.18086 38011 ft 435 kts 194°
2026-05-06 20:23 37.98190 141.17070 38009 ft 434 kts 194°
2026-05-06 20:24 37.92271 141.15698 38007 ft 429 kts 200°
2026-05-06 20:24 37.86575 141.13579 38008 ft 425 kts 204°
2026-05-06 20:25 37.80945 141.11334 38009 ft 425 kts 204°
2026-05-06 20:25 37.75309 141.09102 38007 ft 425 kts 203°
2026-05-06 20:26 37.69684 141.06880 38009 ft 424 kts 203°
2026-05-06 20:26 37.64018 141.04645 38008 ft 425 kts 203°
2026-05-06 20:27 37.58380 141.02426 37990 ft 423 kts 203°
2026-05-06 20:27 37.55601 141.01337 37705 ft 420 kts 203°
2026-05-06 20:27 37.52784 141.00227 36796 ft 425 kts 203°
2026-05-06 20:28 37.49955 140.99109 35571 ft 436 kts 203°
2026-05-06 20:28 37.47045 140.97963 34605 ft 441 kts 202°
2026-05-06 20:28 37.44136 140.96829 33871 ft 440 kts 202°
2026-05-06 20:28 37.41216 140.95688 33194 ft 439 kts 202°
2026-05-06 20:29 37.38288 140.94545 32530 ft 439 kts 202°
2026-05-06 20:29 37.35393 140.93417 31866 ft 439 kts 202°
2026-05-06 20:29 37.32492 140.92290 31197 ft 439 kts 202°
2026-05-06 20:29 37.29591 140.91162 30508 ft 438 kts 202°
2026-05-06 20:30 37.26664 140.90025 29796 ft 438 kts 202°
2026-05-06 20:30 37.20890 140.87788 28607 ft 432 kts 202°
2026-05-06 20:30 37.18001 140.86671 28125 ft 427 kts 201°
2026-05-06 20:31 37.15203 140.85591 27643 ft 422 kts 201°
2026-05-06 20:31 37.12432 140.84520 27162 ft 418 kts 201°
2026-05-06 20:31 37.09646 140.83443 26669 ft 414 kts 202°
2026-05-06 20:31 37.06930 140.82393 26191 ft 410 kts 201°
2026-05-06 20:32 37.04239 140.81355 25717 ft 406 kts 201°
2026-05-06 20:32 37.01533 140.80310 25230 ft 403 kts 202°
2026-05-06 20:32 36.98889 140.79291 24756 ft 400 kts 201°
2026-05-06 20:32 36.96234 140.78268 24282 ft 396 kts 201°
2026-05-06 20:33 36.93600 140.77255 23824 ft 393 kts 201°
2026-05-06 20:33 36.91014 140.76262 23356 ft 391 kts 201°
2026-05-06 20:33 36.88428 140.75270 22889 ft 389 kts 202°
2026-05-06 20:33 36.85837 140.74274 22420 ft 386 kts 201°
2026-05-06 20:34 36.83279 140.73292 21948 ft 384 kts 201°
2026-05-06 20:34 36.80736 140.72316 21475 ft 382 kts 201°
2026-05-06 20:34 36.78181 140.71335 20998 ft 380 kts 201°
2026-05-06 20:34 36.75672 140.70375 20528 ft 377 kts 201°
2026-05-06 20:35 36.73166 140.69417 20057 ft 375 kts 201°
2026-05-06 20:35 36.70684 140.68468 19590 ft 373 kts 201°
2026-05-06 20:35 36.68213 140.67523 19115 ft 370 kts 201°
2026-05-06 20:35 36.65772 140.66591 18652 ft 368 kts 201°
2026-05-06 20:36 36.63353 140.65669 18197 ft 365 kts 201°
2026-05-06 20:36 36.60912 140.64740 17727 ft 363 kts 201°
2026-05-06 20:36 36.58509 140.63821 17270 ft 361 kts 200°
2026-05-06 20:36 36.56126 140.62913 16798 ft 359 kts 200°
2026-05-06 20:37 36.53744 140.62007 16336 ft 356 kts 200°
2026-05-06 20:37 36.51374 140.61108 15881 ft 354 kts 200°
2026-05-06 20:37 36.49038 140.60220 15420 ft 352 kts 200°
2026-05-06 20:37 36.46696 140.59329 14948 ft 350 kts 200°
2026-05-06 20:38 36.44396 140.58456 14485 ft 347 kts 200°
2026-05-06 20:38 36.42080 140.57577 14019 ft 345 kts 200°
2026-05-06 20:38 36.39791 140.56711 13559 ft 342 kts 201°
2026-05-06 20:38 36.37524 140.55850 13096 ft 340 kts 200°
2026-05-06 20:39 36.35292 140.55011 12642 ft 338 kts 198°
2026-05-06 20:39 36.32947 140.54703 12154 ft 344 kts 175°
2026-05-06 20:39 36.30684 140.55733 11704 ft 349 kts 149°
2026-05-06 20:39 36.28922 140.57765 11452 ft 345 kts 135°
2026-05-06 20:40 36.27355 140.59940 11317 ft 332 kts 134°
2026-05-06 20:40 36.25850 140.62003 11189 ft 320 kts 135°
2026-05-06 20:40 36.24377 140.63989 11067 ft 308 kts 136°
2026-05-06 20:40 36.22954 140.65887 10999 ft 294 kts 136°
2026-05-06 20:41 36.21566 140.67732 10827 ft 286 kts 136°
2026-05-06 20:41 36.20220 140.69513 10608 ft 279 kts 136°
2026-05-06 20:41 36.18910 140.71248 10348 ft 275 kts 136°
2026-05-06 20:41 36.17615 140.72961 10089 ft 271 kts 136°
2026-05-06 20:42 36.16352 140.74632 9832 ft 267 kts 136°
2026-05-06 20:42 36.15094 140.76296 9568 ft 263 kts 136°
2026-05-06 20:42 36.13849 140.77943 9259 ft 261 kts 136°
2026-05-06 20:42 36.12564 140.79492 9021 ft 254 kts 145°
2026-05-06 20:43 36.11134 140.80711 8993 ft 247 kts 152°
2026-05-06 20:43 36.09648 140.81816 8994 ft 248 kts 153°
2026-05-06 20:43 36.08155 140.82904 8992 ft 248 kts 153°
2026-05-06 20:43 36.06675 140.83987 8989 ft 248 kts 153°
2026-05-06 20:44 36.05183 140.85084 8986 ft 248 kts 153°
2026-05-06 20:44 36.03700 140.86179 8985 ft 248 kts 153°
2026-05-06 20:44 36.02223 140.87270 8988 ft 248 kts 153°
2026-05-06 20:44 36.00727 140.88374 8989 ft 248 kts 153°
2026-05-06 20:45 35.99223 140.89409 8989 ft 246 kts 158°
2026-05-06 20:45 35.97653 140.90225 8991 ft 244 kts 163°
2026-05-06 20:45 35.96057 140.90962 8987 ft 244 kts 163°
2026-05-06 20:45 35.94459 140.91687 8987 ft 245 kts 163°
2026-05-06 20:46 35.92874 140.92410 8988 ft 245 kts 164°
2026-05-06 20:46 35.91259 140.93150 8987 ft 246 kts 163°
2026-05-06 20:46 35.89650 140.93884 8985 ft 246 kts 163°
2026-05-06 20:46 35.88005 140.94429 8978 ft 242 kts 178°
2026-05-06 20:47 35.86332 140.94455 8983 ft 239 kts 187°
2026-05-06 20:47 35.84674 140.94333 8981 ft 238 kts 188°
2026-05-06 20:47 35.83006 140.94199 8984 ft 239 kts 188°
2026-05-06 20:47 35.81352 140.94072 8984 ft 239 kts 187°
2026-05-06 20:48 35.79687 140.93953 8982 ft 239 kts 187°
2026-05-06 20:48 35.78012 140.93835 8982 ft 239 kts 187°
2026-05-06 20:48 35.76400 140.93526 8977 ft 235 kts 201°
2026-05-06 20:48 35.74901 140.92744 8983 ft 233 kts 209°
2026-05-06 20:49 35.73445 140.91838 8983 ft 233 kts 210°
2026-05-06 20:49 35.72009 140.90932 8981 ft 234 kts 210°
2026-05-06 20:49 35.70546 140.90016 8979 ft 234 kts 210°
2026-05-06 20:49 35.69115 140.89114 8978 ft 233 kts 213°
2026-05-06 20:50 35.67987 140.87729 8964 ft 230 kts 246°
2026-05-06 20:50 35.67712 140.85815 8973 ft 231 kts 277°
2026-05-06 20:50 35.68294 140.84006 8976 ft 236 kts 304°
2026-05-06 20:50 35.69349 140.82420 8979 ft 236 kts 306°
2026-05-06 20:51 35.70378 140.80858 8975 ft 235 kts 306°
2026-05-06 20:51 35.71392 140.79295 8970 ft 236 kts 305°
2026-05-06 20:51 35.72413 140.77722 8964 ft 235 kts 305°
2026-05-06 20:51 35.73429 140.76150 8941 ft 235 kts 305°
2026-05-06 20:52 35.74459 140.74556 8651 ft 237 kts 305°
2026-05-06 20:52 35.75473 140.72989 8346 ft 235 kts 305°
2026-05-06 20:52 35.76498 140.71407 8050 ft 234 kts 305°
2026-05-06 20:52 35.77499 140.69858 7767 ft 232 kts 304°
2026-05-06 20:53 35.78503 140.68301 7482 ft 231 kts 304°
2026-05-06 20:53 35.79505 140.66751 7203 ft 230 kts 304°
2026-05-06 20:53 35.80503 140.65205 6925 ft 230 kts 304°
2026-05-06 20:53 35.81483 140.63681 6650 ft 229 kts 304°
2026-05-06 20:54 35.82472 140.62144 6375 ft 229 kts 304°
2026-05-06 20:54 35.83459 140.60614 6101 ft 228 kts 304°
2026-05-06 20:54 35.84452 140.59080 5925 ft 225 kts 305°
2026-05-06 20:54 35.85444 140.57575 5950 ft 228 kts 305°
2026-05-06 20:55 35.86449 140.56050 5965 ft 228 kts 305°
2026-05-06 20:55 35.87439 140.54549 5971 ft 228 kts 305°
2026-05-06 20:55 35.88453 140.53009 5972 ft 229 kts 305°
2026-05-06 20:55 35.89452 140.51492 5974 ft 228 kts 305°
2026-05-06 20:56 35.90455 140.49966 5975 ft 228 kts 305°
2026-05-06 20:56 35.91453 140.48448 5975 ft 228 kts 305°
2026-05-06 20:56 35.92454 140.46922 5974 ft 228 kts 305°
2026-05-06 20:56 35.93447 140.45409 5978 ft 228 kts 304°
2026-05-06 20:57 35.94437 140.43900 5979 ft 228 kts 305°
2026-05-06 20:57 35.95437 140.42377 5981 ft 228 kts 304°
2026-05-06 20:57 35.96420 140.40839 5979 ft 227 kts 303°
2026-05-06 20:57 35.97375 140.39264 5768 ft 229 kts 303°
2026-05-06 20:58 35.98322 140.37688 5466 ft 229 kts 303°
2026-05-06 20:58 35.99265 140.36121 5182 ft 227 kts 303°
2026-05-06 20:58 36.00213 140.34549 4903 ft 226 kts 302°
2026-05-06 20:58 36.00915 140.32861 4575 ft 220 kts 273°
2026-05-06 20:59 36.00663 140.31074 4283 ft 213 kts 239°
2026-05-06 20:59 35.99869 140.29529 4029 ft 214 kts 236°
2026-05-06 20:59 35.99086 140.27969 3766 ft 213 kts 237°
2026-05-06 20:59 35.98323 140.26404 3503 ft 213 kts 237°
2026-05-06 21:00 35.97457 140.24930 3215 ft 211 kts 217°
2026-05-06 21:00 35.96130 140.24249 2923 ft 211 kts 183°
2026-05-06 21:00 35.94691 140.24521 2790 ft 211 kts 162°
2026-05-06 21:00 35.93335 140.25288 2786 ft 215 kts 153°
2026-05-06 21:01 35.92044 140.26230 2785 ft 216 kts 151°
2026-05-06 21:01 35.90789 140.27181 2769 ft 204 kts 151°
2026-05-06 21:01 35.89595 140.28067 2756 ft 197 kts 152°
2026-05-06 21:01 35.88418 140.28922 2572 ft 197 kts 152°
2026-05-06 21:02 35.87237 140.29771 2355 ft 193 kts 152°
2026-05-06 21:02 35.86116 140.30579 2129 ft 182 kts 152°
2026-05-06 21:02 35.85069 140.31334 1875 ft 166 kts 153°
2026-05-06 21:02 35.84110 140.32024 1630 ft 154 kts 152°
2026-05-06 21:03 35.83216 140.32666 1419 ft 142 kts 152°
2026-05-06 21:03 35.82383 140.33264 1233 ft 138 kts 152°
2026-05-06 21:03 35.81550 140.33864 1064 ft 137 kts 151°
2026-05-06 21:03 35.80735 140.34451 896 ft 137 kts 151°
2026-05-06 21:04 35.79908 140.35049 718 ft 136 kts 150°
2026-05-06 21:04 35.79096 140.35635 536 ft 136 kts 150°
2026-05-06 21:04 35.78275 140.36227 344 ft 135 kts 150°
2026-05-06 21:04 35.77466 140.36815 175 ft 134 kts 149°
2026-05-06 21:05 35.76702 140.37366 128 ft 113 kts 150°
2026-05-06 21:05 35.76168 140.37746 135 ft 63 kts 148°
2026-05-06 21:05 35.75899 140.37941 136 ft 33 kts 149°
2026-05-06 21:05 35.75751 140.38054 137 ft 21 kts 139°
2026-05-06 21:06 35.75655 140.38179 139 ft 19 kts 124°
2026-05-06 21:06 35.75588 140.38319 139 ft 19 kts 118°
2026-05-06 21:06 35.75524 140.38461 139 ft 18 kts 108°
2026-05-06 21:06 35.75577 140.38554 136 ft 15 kts 352°
2026-05-06 21:07 35.75675 140.38490 136 ft 16 kts 329°
2026-05-06 21:07 35.75785 140.38409 136 ft 20 kts 328°
2026-05-06 21:07 35.75921 140.38312 137 ft 22 kts 330°
2026-05-06 21:07 35.76052 140.38219 139 ft 20 kts 329°
2026-05-06 21:08 35.76167 140.38133 138 ft 18 kts 328°
2026-05-06 21:08 35.76247 140.38130 138 ft 11 kts 50°
2026-05-06 21:08 35.76289 140.38213 139 ft 9 kts 61°
2026-05-06 21:08 35.76309 140.38258 139 ft 5 kts 59°
2026-05-06 21:09 35.76321 140.38283 139 ft 0 kts 60°
2026-05-06 21:09 35.76323 140.38287 139 ft 0 kts 60°